STARLINK-35705, 67039

Orbit data source: Space-Track

STARLINK-35705, 67039 is a payload satellite owned by SpaceX/Seattle (US) in LEO that was launched on Thu, 11 Dec 2025 UTC via an FALCON 9 launch vehicle from the Air Force Eastern Test Range (AFETR). Payload-class satellites include a variety of spacecraft equipped with specific instruments for various scientific and technological missions. These include communications satellites like Starlink; space stations such as the ISS; scientific satellites like the Hubble; Earth observation satellites from companies like Planet Labs, Umbra, and HawkEye 360; GPS; miniature CubeSats for education and research; and military/defense satellites.

Loading next visibility...
Identifier
67039, 2025-294K
Orbit
LEO
Country
Flag of USUS
Related business
Manufacturer
SpaceX/Seattle
Mission
Operational Commercial Communications
Bus & Motor
STARLINK V2MO, Unknown motor
Mass
575 kg wet, ~530 kg dry
Launch date (UTC)
2025-12-11 (6 months ago)
Launch vehicle
FALCON 9
Launch site
Air Force Eastern Test Range (AFETR)
Object type
Payload
Rocket body
Debris
Shape & HBR
Box + 2 Pan, 17.7 m
Radar Cross Section
36.964 m², Large (>1 m²)

Expand to show TLE details & history
Last TLE update: 18 hours ago

TLE from 18 hours ago
0 STARLINK-35705
1 67039U 25294K   26171.10257659  .00012568  00000-0  46528-3 0  9999
2 67039  43.0008 179.5491 0001443 268.8170  91.2517 15.27593195 30467
Epoch: 2026-06-20T02:27Z
TLE epoch observation values (Epoch: 2026-06-20T02:27:42.617Z)
Latitude
0.00003°
Longitude
-125.70045°
Altitude
482.807 km
Speed
7.626 km/s
True Right ascension
11h 58m 11s
True Declination
0° 00' 00"
Sunlit
Object was in daylight at epoch
Visualization orbit readout
Latitude
Unknown
Longitude
Unknown
Altitude
Unknown
Speed
Unknown
Apparent Right ascension
Unknown
Apparent Declination
Unknown
Sunlit
N/A
Visualization observer readout
Local Sidereal Time
07:15:24
Azimuth
Unknown
Elevation
Unknown
Doppler factor
Unknown
Orbital elements
Apogee altitude
485.945 km
Perigee altitude
483.964 km
Semi-major axis
6,863.092 km
Eccentricity
0.00014
Inclination
43.0008°
RAAN
179.5491°
Arg. of periapsis
268.817°
True anomaly
91.26823°
Mean anomaly
91.2517°
Eccentric anomaly
91.25997°
Mean motion
3.81736 °/min
Orbital period
94.31 mins
BSTAR
0.00046528
Loading maneuver chart data...
Computing Atmospheric mass density...
Loading historical data...
Loading historical data...
Loading historical data...
Loading historical data...
Loading historical data...
Loading historical data...
Loading historical data...

Documentation

Showing up to 5 results
|